Regional Weather Roundup
Issued by NWS San Diego, CA

Home | Current Version | Previous Version | Text Only | Print | Product List | Glossary On
Versions: 1 2 3 4 5 6 7 8 9 10 11 12 13 14 15 16 17 18 19 20 21 22 23 24 25 26 27 28 29 30 31 32 33 34 35 36 37 38 39 40 41 42 43 44 45 46 47 48 49 50
000
ASUS46 KSGX 222111
RWRSGX

SAN DIEGO HOURLY WEATHER ROUNDUP
NATIONAL WEATHER SERVICE SAN DIEGO CA
100 PM PST WED NOV 22 2017

NOTE: "FAIR" INDICATES FEW OR NO CLOUDS BELOW 12,000 FEET WITH NO
SIGNIFICANT WEATHER AND/OR OBSTRUCTIONS TO VISIBILITY.

CAZ042-043-060-061-PZZ750-775-222200-

GREATER SAN DIEGO AREA

CITY           SKY/WX    TMP DP  RH WIND       PRES   REMARKS
SAN DIEGO AP   MOSUNNY   90  37  15 NW7       29.99F
NATIONAL CITY    N/A     89  45  21 CALM      29.99F
CHULA VISTA      N/A     91  47  21 W3        29.90F
IMPERIAL BEACH SUNNY     88  37  16 W7        29.98F
BROWN FIELD    SUNNY     93  37  14 VRB5      29.99F
MIRAMAR MCAS   SUNNY     97  38  13 VRB5      29.99F
MONTGOMERY FLD SUNNY     97  35  11 W6        30.00F
GILLESPIE FLD  SUNNY     95  36  12 MISG      29.99F

$$

NORTH SAN DIEGO COUNTY

CITY           SKY/WX    TMP DP  RH WIND       PRES   REMARKS
CAMP PENDLETON SUNNY     93  41  16 SW7       29.97F
OCEANSIDE AP   SUNNY     90  43  19 W6        29.97F
OCEANSIDE HBR    N/A     73  60  63 CALM      30.00F
CARLSBAD       SUNNY     86  44  23 W3        29.98F
DEL MAR          N/A     84  49  29 CALM      30.00F
LA JOLLA SCRIP   N/A     83  42  23 W2        29.98F
FALLBROOK        N/A     94  35  12 CALM      30.01F
ESCONDIDO        N/A     92  45  19 NW3       29.99F
SAN MARCOS       N/A     94  47  19 W6        30.01F
POWAY            N/A     94  44  17 CALM      30.00F

$$

EAST SAN DIEGO COUNTY

CITY           SKY/WX    TMP DP  RH WIND       PRES   REMARKS
RAMONA         SUNNY     88 N/A N/A NE21      30.06F
SANTEE LAKES     N/A     96  44  16 CALM      29.97F
JAMUL            N/A     92  47  21 CALM      30.00F
DESCANSO N       N/A     78  39  24 NE16      29.95F
MT. LAGUNA OBS   N/A     62  30  30 E6        30.03F
CAMPO            N/A     82  32  16 E23G30    30.11F

$$

ORANGE COUNTY AND THE LOS ANGELES BASIN

CITY           SKY/WX    TMP DP  RH WIND       PRES   REMARKS
JOHN WAYNE AP  SUNNY     90  41  18 SW8       29.98F
LAGUNA BEACH     N/A     80  53  38 CALM      29.94F
LAKE FOREST FR   N/A     92  42  17 W3        29.86F
HUNTINGTON BCH   N/A     79  54  42 W1        30.00F
LOS ALAMITOS   SUNNY     87  49  26 S5        29.99F
FULLERTON      SUNNY     96  36  12 N3        29.98F
LONG BEACH     SUNNY     92  47  21 VRB3      29.99F
L.A. AP        SUNNY     87  44  22 W12       30.00F
L.A. DOWNTOWN  SUNNY     91  37  15 CALM      29.99F

$$

THE INLAND EMPIRE

CITY           SKY/WX    TMP DP  RH WIND       PRES   REMARKS
CORONA         SUNNY     96  40  14 VRB7      30.02F
CHINO          SUNNY     95  37  13 NW3       30.03F
ONTARIO        SUNNY     92  31  11 SW5       30.04F
SAN BERNARDINO SUNNY     91  32  12 CALM      30.06F
RIVERSIDE AP   SUNNY     94  38  14 NE8       30.03F
MORENO VALLEY    N/A     92  42  17 CALM      28.20F
MARCH ARB      SUNNY     91  35  14 NE7       30.07F
HORSETHIEF CYN   N/A     91  31  12 NE5       30.02F
PERRIS           N/A     90  40  17 SE5         N/A
HEMET EAST       N/A     87  32  13 CALM      30.09F
FRENCH VALLEY  FAIR      91  37  15 NE8       30.05F
TEMECULA         N/A     92  41  17 SW2       30.04F

$$

SAN BERNARDINO AND RIVERSIDE COUNTY MOUNTAINS

CITY           SKY/WX    TMP DP  RH WIND       PRES   REMARKS
BIG BEAR AP    SUNNY     68  28  22 E9        30.40F
ANGELUS OAKS     N/A     73  39  28 CALM      30.00F

$$

SOUTHERN DESERT INCLUDING THE COACHELLA VALLEY

CITY           SKY/WX    TMP DP  RH WIND       PRES   REMARKS
PALM SPRINGS   SUNNY     94  37  13 S6        30.07F
THOUSAND PALMS   N/A     93  44  17 N5        30.02F
PALM DESERT      N/A     95  47  19 E5        27.49S
THERMAL        SUNNY     90  52  27 SE9       30.03F
BLYTHE         SUNNY     87  28  12 NW8       30.08F
IMPERIAL AP    SUNNY     88  37  16 NW5       30.04F
EL CENTRO NAS  SUNNY     89  34  14 NE5       30.06F
YUMA AZ        SUNNY     89  29  11 N8        30.04F
MEXICALI       SUNNY     86  32  14 NW6       30.06

$$

UPPER DESERT

CITY           SKY/WX    TMP DP  RH WIND       PRES   REMARKS
VICTORVILLE AP SUNNY     79  28  15 CALM      30.23F
HESPERIA         N/A     78  34  20 N2        30.29F
PALMDALE       SUNNY     77  28  16 VRB5      30.23F
LANCASTER      SUNNY     79  28  15 NE6       30.22F
EDWARDS AFB    SUNNY     76  25  15 N5        30.20F
DAGGETT        SUNNY     79  30  16 CALM      30.20F
29 PALMS N     SUNNY     83  30  14 W5        30.23F
NEEDLES        SUNNY     87  33  14 N15G22    30.12F

$$

REGIONAL REPORTS

CITY           SKY/WX    TMP DP  RH WIND       PRES   REMARKS
SANTA BARBARA  SUNNY     87  37  17 SW8       30.01F
SANDBERG       SUNNY     75  32  20 E16G28    30.31F
LAS VEGAS NV   SUNNY     77  38  24 CALM      30.22F
PHOENIX AZ     MOSUNNY   87  26  11 SE6       30.07F
TIJUANA        SUNNY    N/A N/A N/A CALM      30.02
ENSENADA NW      N/A     74  32  21 CALM      29.89S

$$

OFFSHORE ISLANDS

CITY           SKY/WX    TMP DP  RH WIND       PRES   REMARKS
CATALINA ARPT  SUNNY     89  36  15 E7        30.09F
SAN CLEMENTE I MOSUNNY   77  61  57 SW8       30.02F
SAN NICOLAS IS SUNNY     87  38  17 NE6       30.03F

$$

MARINE AND OFFSHORE BUOY REPORTS

STATION/POSITION SKY/WX   TEMP    WIND        PRES    VSBY  SWELL
                          AIR SEA DIR/SP/G                  HT/PER/DIR
                          (F)     (DEG/KT/KT) (MB)    (MI)  (FT/S/D)
TANNER BANKS               65 64              1016.1F
S CLEMENTE BASIN           68 67  340/  8/ 10 1015.6F         2/230/13
SAN NICOLAS IS.               63                N/A           2/280/12
SO. S. ROSA ISLA           64 62  300/  8/ 10 1016.3F         3/300/11
W. S. BARBARA CH           62 61  300/ 10/ 12 1016.7F         3/270/11
M. S. BARBARA CH           68 62  320/  6/  8 1017.1
S. MONICA BASIN               65  280/  6/  6 1015.7
S PEDRO CHANNEL               64                N/A           2/240/11
CMP PENDLETON NS              63                N/A           2/230/13
OCEANSIDE OFFSHR              63                N/A           2/210/14
TORREY PINES OTR              66                N/A           2/270/11
SAN DIEGO BAY                 67              1015.7F
POINT LOMA SOUTH              66                N/A           2/230/12

$$





USA.gov is the U.S. government's official web portal to all federal, state and local government web resources and services.